Weather History for KFMY - July, 2014

Change the Weather History Date:

Wednesday, July 2, 2014

  Actual Average Record
Temperature  
Mean Temperature 85 °F 83 °F  
Max Temperature 93 °F 92 °F 97 °F (1998)
Min Temperature 77 °F 74 °F 68 °F (1931)
Degree Days  
Heating Degree Days 0 0  
Month to date heating degree days 0 0  
Since 1 June heating degree days 0 0  
Since 1 July heating degree days 0 0  
Cooling Degree Days 20 18  
Month to date cooling degree days 41 36  
Year to date cooling degree days 1762 1627  
Since 1 June cooling degree days 571 561  
Growing Degree Days 36 (Base 50)    
Moisture  
Dew Point 74 °F    
Average Humidity 69    
Maximum Humidity 85    
Minimum Humidity 56    
Precipitation  
Precipitation 0.00 in 0.32 in 2.80 in (1921)
Month to date precipitation 0.00 0.65  
Year to date precipitation 13.82 22.54  
Sea Level Pressure  
Sea Level Pressure 29.94 in    
Wind  
Wind Speed 8 mph (West)    
Max Wind Speed 20 mph    
Max Gust Speed 24 mph    
Visibility 10 miles    
Events Thunderstorm    
T = Trace of Precipitation, MM = Missing Value Source: NWS Daily Summary

Daily Weather History Graph

Daily Weather History Graph

Search for Another Location

Airport or City:

Trip Planner

Search our weather history database for the weather conditions in past years. The results will help you decide how hot, cold, wet, or windy it might be!

Date:

Astronomy

Jul. 02, 2014 Rise Set
Actual Time 6:38 AM EDT 8:24 PM EDT
Civil Twilight 6:12 AM EDT 8:50 PM EDT
Nautical Twilight 5:40 AM EDT 9:22 PM EDT
Astronomical Twilight 5:07 AM EDT 9:55 PM EDT
Moon 11:11 AM EDT (7/2) 11:48 PM EDT (7/2)
Length of Visible Light 14h 38m
Length of Day
13h 46m
Waxing Crescent, 24% of the Moon is Illuminated
Jul 2
Waxing Crescent
Jul 5
First Quarter
Jul 12
Full
Jul 18
Last Quarter
Jul 26
New

Hourly Weather History & Observations

Time (EDT) Temp. Heat Index Dew Point Humidity Pressure Visibility Wind Dir Wind Speed Gust Speed Precip Events Conditions
12:53 AM 81.0 °F 86.2 °F 73.9 °F 79% 29.92 in 10.0 mi NNW 4.6 mph - N/A   Clear
1:53 AM 81.0 °F 85.8 °F 73.0 °F 77% 29.91 in 10.0 mi Calm Calm - N/A   Clear
2:53 AM 80.1 °F 83.8 °F 72.0 °F 76% 29.90 in 10.0 mi North 3.5 mph - N/A   Clear
3:53 AM 78.1 °F - 73.0 °F 84% 29.89 in 10.0 mi NE 4.6 mph - N/A   Clear
4:53 AM 78.1 °F - 72.0 °F 81% 29.90 in 10.0 mi NE 3.5 mph - N/A   Clear
5:53 AM 78.1 °F - 73.0 °F 84% 29.91 in 10.0 mi Calm Calm - N/A   Clear
6:53 AM 78.1 °F - 73.0 °F 84% 29.92 in 10.0 mi Calm Calm - N/A   Mostly Cloudy
7:53 AM 80.1 °F 84.5 °F 73.9 °F 81% 29.94 in 10.0 mi Calm Calm - N/A   Mostly Cloudy
8:53 AM 82.9 °F 88.8 °F 73.0 °F 72% 29.94 in 10.0 mi WNW 3.5 mph - N/A   Scattered Clouds
9:53 AM 86.0 °F 93.8 °F 73.9 °F 67% 29.95 in 10.0 mi West 6.9 mph - N/A   Clear
10:53 AM 88.0 °F 97.5 °F 75.0 °F 65% 29.94 in 10.0 mi West 6.9 mph - N/A   Scattered Clouds
11:53 AM 90.0 °F 99.0 °F 73.9 °F 59% 29.95 in 10.0 mi West 9.2 mph - N/A   Partly Cloudy
12:53 PM 91.0 °F 100.4 °F 73.9 °F 57% 29.95 in 10.0 mi WNW 9.2 mph - N/A   Mostly Cloudy
1:53 PM 91.0 °F 101.6 °F 75.0 °F 59% 29.94 in 10.0 mi West 16.1 mph - N/A   Overcast
2:04 PM 91.0 °F 101.6 °F 75.0 °F 59% 29.92 in 10.0 mi West 17.3 mph 21.9 mph N/A Thunderstorm Mostly Cloudy
2:31 PM 91.9 °F 103.9 °F 75.9 °F 59% 29.92 in 10.0 mi West 16.1 mph 23.0 mph N/A   Mostly Cloudy
2:44 PM 93.0 °F 104.6 °F 75.0 °F 56% 29.92 in 10.0 mi WSW 16.1 mph - N/A Thunderstorm Partly Cloudy
2:53 PM 91.9 °F 103.9 °F 75.9 °F 59% 29.94 in 10.0 mi WSW 15.0 mph 21.9 mph N/A Thunderstorm Partly Cloudy
3:09 PM 91.0 °F 102.9 °F 75.9 °F 61% 29.93 in 10.0 mi WSW 17.3 mph - N/A   Scattered Clouds
3:53 PM 91.0 °F 102.9 °F 75.9 °F 61% 29.94 in 10.0 mi WSW 13.8 mph - N/A   Partly Cloudy
4:15 PM 91.0 °F 102.9 °F 75.9 °F 61% 29.93 in 10.0 mi West 16.1 mph - N/A Thunderstorm Clear
5:53 PM 88.0 °F 97.5 °F 75.0 °F 65% 29.94 in 10.0 mi West 13.8 mph - N/A Thunderstorm Partly Cloudy
6:06 PM 88.0 °F 97.5 °F 75.0 °F 65% 29.93 in 10.0 mi West 12.7 mph - N/A   Partly Cloudy
6:28 PM 88.0 °F 96.5 °F 73.9 °F 63% 29.93 in 10.0 mi WSW 13.8 mph - N/A Thunderstorm Thunderstorm
6:53 PM 88.0 °F 97.5 °F 75.0 °F 65% 29.93 in 10.0 mi WSW 13.8 mph - N/A   Partly Cloudy
7:53 PM 86.0 °F 95.1 °F 75.0 °F 70% 29.94 in 10.0 mi WSW 12.7 mph - N/A   Clear
8:53 PM 84.9 °F 92.1 °F 73.9 °F 69% 29.96 in 10.0 mi West 13.8 mph - N/A   Clear
9:53 PM 84.0 °F 91.2 °F 73.9 °F 72% 29.98 in 10.0 mi West 9.2 mph - N/A   Clear
10:53 PM 82.9 °F 90.2 °F 75.0 °F 77% 29.99 in 10.0 mi WSW 4.6 mph - N/A   Clear
11:53 PM 82.9 °F 90.2 °F 75.0 °F 77% 29.99 in 10.0 mi SW 4.6 mph - N/A   Clear